Theta_e
302 301 301 299 300 301 300 301 300 300 300 299 299 296 295 293 294 298 298 297 296 286 292 296 296 295 294 291 289 292 290 289 289 294 293 294 295 297 295 294 293 299 297 293 299 301 300 297 298 296 294 296 297 297
301 300 300 300 300 300 300 299 298 298 298 297 297 297 297 294 294 297 297 296 296 296 292 295 295 295 295 295 292 290 291 291 291 287 288 290 293 292 291 291 293 295 299 299 298 298 297 297 298 298 296 296 296 298
300 299 298 298 298 298 298 297 297 297 297 297 297 296 296 294 292 292 295 296 295 291 290 290 293 294 294 293 294 289 288 292 292 290 287 287 289 289 292 291 293 292 297 299 299 298 298 297 298 298 297 295 295 296
298 299 299 298 298 297 297 297 297 297 296 296 296 296 296 293 292 292 293 295 295 292 289 290 293 292 291 292 293 292 293 293 292 284 283 285 288 289 289 291 291 292 293 293 296 297 297 297 296 294 294 295 296 296
299 298 298 298 297 297 297 296 296 295 295 295 295 294 292 290 290 294 295 295 295 293 288 289 292 293 293 292 292 293 292 289 283 287 285 288 289 289 289 290 293 292 293 293 295 294 295 297 296 295 295 296 295 295
297 296 296 295 295 295 295 295 294 294 294 294 294 294 292 289 289 294 290 294 293 293 284 283 289 291 292 292 293 293 293 288 284 287 287 288 289 293 294 291 292 291 292 294 294 295 296 296 297 294 295 295 296 297
295 295 295 295 295 295 294 294 294 294 294 295 294 293 291 290 289 292 290 294 293 293 285 284 284 288 291 291 291 290 292 286 287 288 291 290 290 295 294 294 293 293 294 294 294 294 295 294 294 294 295 296 296 295
295 295 295 295 295 294 293 293 294 294 293 294 293 291 290 291 292 293 294 293 293 291 291 289 282 285 290 287 288 290 286 283 285 287 289 292 289 291 293 292 292 293 293 293 293 294 293 293 294 293 294 294 295 293
295 295 295 295 294 294 294 293 293 294 294 292 291 290 293 293 293 293 292 293 292 290 279 288 286 285 287 285 284 287 285 285 285 290 290 291 290 295 293 294 294 295 294 295 294 293 292 292 292 293 293 294 294 293
295 295 295 295 295 295 295 294 294 295 294 292 291 292 285 292 292 291 292 288 288 290 287 289 285 286 287 284 283 281 279 290 292 289 293 293 293 295 296 294 293 292 293 294 293 293 293 293 291 292 292 292 292 291
296 296 295 295 295 295 295 294 295 294 293 291 292 287 292 290 291 285 279 280 278 282 282 288 287 287 288 288 286 284 282 278 282 289 294 295 294 296 295 293 293 292 292 293 292 292 293 294 292 290 291 292 293 295
295 295 295 295 295 295 295 294 294 294 292 292 292 291 289 284 277 279 273 277 280 285 284 289 289 287 286 284 285 284 286 282 288 290 294 294 297 295 294 293 292 291 292 293 294 294 294 292 292 291 292 293 294 295
295 296 295 294 294 294 294 294 295 293 292 291 289 280 280 276 279 278 278 279 282 287 288 288 287 284 286 283 281 287 287 289 292 291 294 297 295 293 292 292 292 292 294 294 293 294 293 293 292 292 293 293 294 295
295 295 294 294 294 294 293 293 294 292 291 283 279 282 279 275 279 278 281 283 286 286 286 286 286 286 284 285 279 287 287 289 295 297 296 292 291 291 290 291 290 291 292 293 293 294 294 294 293 294 294 294 294 294
293 293 293 292 292 294 294 293 292 291 290 282 280 282 279 283 280 283 280 280 286 285 286 283 282 282 279 282 282 285 287 294 296 295 292 290 290 289 288 290 290 290 291 292 293 293 293 293 293 292 293 294 294 295
293 293 292 292 294 293 293 293 291 290 288 281 283 285 286 286 282 281 285 281 283 284 284 283 279 283 282 282 287 293 293 295 295 294 291 289 292 289 288 289 290 291 291 292 293 293 293 292 293 293 295 295 295 295
292 291 292 293 292 292 292 291 290 287 282 283 282 286 286 286 285 282 285 286 287 284 284 280 284 285 283 287 289 294 295 293 292 290 289 290 294 292 290 289 290 293 293 294 294 294 294 294 294 294 293 294 295 295
292 292 293 292 291 291 291 290 289 283 283 287 288 286 285 285 285 285 285 287 286 285 287 288 286 285 286 285 292 292 289 289 288 288 289 291 290 290 292 290 290 291 292 293 294 294 294 294 294 294 294 295 295 295
291 292 293 291 291 290 288 289 288 283 285 287 285 285 285 285 285 287 287 288 289 289 289 289 288 290 291 290 290 288 289 289 289 289 289 291 291 291 291 291 291 290 291 291 292 292 293 294 294 294 295 295 295 295
291 292 292 291 290 289 280 286 288 287 283 285 285 286 286 286 286 286 285 283 285 289 290 289 288 289 290 290 288 288 288 288 287 288 289 291 291 290 291 291 290 290 290 291 291 291 292 292 293 293 293 293 293 294
292 291 291 290 289 289 285 279 287 287 287 286 285 286 287 286 285 283 285 285 284 289 289 289 288 289 290 291 290 290 290 290 289 288 290 290 291 290 290 291 291 291 290 290 290 290 291 290 291 292 292 291 292 294
291 291 291 290 289 289 288 288 284 287 286 287 286 287 287 286 288 285 282 285 288 289 287 288 289 289 288 288 290 291 291 291 291 291 291 291 289 289 290 291 291 289 290 290 290 290 291 291 291 291 292 293 293 292
291 290 289 288 287 288 283 288 289 289 287 281 286 286 283 285 287 287 289 289 289 289 290 290 291 291 290 291 292 293 292 291 290 290 290 290 290 290 290 290 290 290 289 290 291 291 292 292 292 292 292 293 294 294
290 289 287 288 279 282 281 285 286 285 287 283 283 283 285 285 286 287 290 289 287 288 288 290 290 288 288 289 288 291 291 290 290 289 289 289 288 289 289 290 290 290 291 292 292 291 292 293 294 294 294 294 294 295
284 287 287 281 280 282 282 280 283 287 282 286 288 283 284 286 286 287 289 288 286 287 287 288 288 288 288 287 288 289 290 290 289 288 290 289 289 289 289 290 292 293 293 293 293 293 293 294 294 294 294 295 295 294
281 281 286 282 282 286 285 284 286 288 288 284 287 286 286 286 286 287 288 287 286 286 286 287 287 287 286 288 287 288 290 290 290 288 289 289 290 289 289 290 291 293 294 293 293 293 293 293 293 293 293 294 294 294
281 284 283 284 286 286 286 287 287 286 286 286 283 282 280 282 284 287 286 285 286 288 290 289 288 288 287 288 289 290 289 289 289 289 290 291 292 292 292 292 291 292 293 293 292 292 292 292 292 292 292 292 292 291
284 285 287 286 286 286 284 282 285 287 287 285 285 284 285 285 286 286 285 288 289 290 291 290 290 290 290 289 289 290 291 291 291 291 291 291 291 292 292 292 292 291 291 291 291 291 291 291 291 291 291 290 290 290
287 286 284 280 285 286 286 287 287 286 286 286 287 285 286 286 286 287 289 289 289 289 290 290 291 291 291 291 291 291 291 290 290 289 289 288 287 290 291 291 291 290 290 289 289 289 289 289 289 289 289 289 289 289
287 285 283 283 282 284 286 286 286 285 285 285 285 285 285 286 289 289 289 289 289 289 289 289 290 290 290 289 289 289 289 290 290 289 287 286 288 290 290 290 290 290 289 288 288 288 288 289 288 288 288 288 288 288
285 284 283 284 282 283 284 285 286 286 284 284 284 285 286 285 287 288 288 289 289 289 289 288 289 290 290 289 288 288 288 290 290 290 289 289 289 289 289 289 288 288 288 287 288 288 288 288 288 288 288 288 288 288
284 285 285 283 282 282 282 284 284 285 284 284 284 282 284 286 285 285 288 288 288 287 288 289 288 289 290 291 291 290 290 290 290 289 289 289 289 288 288 287 287 287 287 287 287 287 287 288 288 288 288 288 288 288
286 286 286 285 282 282 283 284 284 283 282 283 284 285 286 286 286 286 287 287 287 287 287 288 288 289 289 289 290 290 290 289 289 288 288 288 288 287 287 287 287 286 287 287 287 287 287 287 287 287 287 288 288 288
Wind_Speed
23 20 17 16 17 17 16 14 13 13 12 11 9 8 9 9 7 7 10 9 4 2 4 2 1 2 3 2 3 3 4 4 3 1 2 2 2 3 3 2 8 4 4 2 2 3 5 4 1 3 4 5 3 1
25 22 20 19 20 20 20 17 15 13 12 12 11 10 10 9 8 6 6 6 4 3 4 9 14 15 12 15 4 2 4 4 3 2 2 1 3 2 6 4 4 4 3 3 4 5 7 12 8 10 6 8 4 3
23 22 21 20 20 19 18 17 16 14 13 12 10 9 8 8 8 7 6 7 3 4 5 4 2 5 6 4 7 4 3 5 3 5 4 3 3 3 2 4 4 5 2 3 5 4 8 18 19 16 14 9 6 4
24 25 24 22 22 21 18 16 14 12 10 10 9 8 8 7 7 6 5 5 4 4 1 5 8 15 17 18 11 15 19 7 3 3 3 4 3 5 4 6 5 6 3 8 12 14 14 11 5 10 12 3 3 2
24 23 22 20 19 18 17 16 14 12 12 11 9 7 6 7 7 6 9 7 5 4 2 4 20 7 5 17 12 7 9 4 2 1 1 4 3 2 3 2 11 6 12 6 8 8 7 9 9 7 4 1 2 1
23 20 19 18 17 17 15 15 14 12 10 9 7 6 7 7 7 4 4 7 8 8 3 2 7 9 14 13 9 10 10 4 3 3 4 4 3 4 4 5 11 11 15 18 15 13 10 16 11 7 2 2 1 2
20 20 18 18 17 16 15 13 11 9 8 6 4 4 6 8 6 4 3 2 5 6 2 3 5 5 10 6 6 4 3 2 3 2 3 3 3 4 3 10 25 11 11 7 9 10 13 12 7 6 4 4 2 3
19 18 18 17 16 15 14 12 11 8 5 2 2 5 8 5 5 5 6 4 3 5 2 2 4 5 5 2 3 2 2 3 2 3 2 3 1 2 4 8 9 10 12 14 17 14 11 9 3 4 4 2 3 4
19 18 17 16 14 13 12 11 9 6 4 0 4 5 3 3 2 2 5 6 2 1 3 1 1 3 4 2 2 3 2 2 1 3 3 3 2 4 6 10 12 14 8 9 6 7 7 6 5 4 4 5 4 5
19 18 17 15 14 12 12 10 9 7 4 2 2 2 2 3 4 6 1 3 3 3 2 3 1 3 2 1 3 2 2 2 2 4 2 3 3 4 12 10 12 15 14 8 5 6 5 5 4 5 6 4 4 4
19 19 19 16 14 11 8 7 11 10 5 2 2 1 2 2 1 5 2 3 2 4 2 3 4 3 2 2 3 2 2 1 2 4 1 2 2 7 11 13 13 12 6 7 8 8 6 5 5 6 5 8 6 2
18 18 18 17 17 12 10 7 14 13 5 5 6 4 2 5 4 5 2 3 2 3 2 2 4 4 4 2 2 2 2 2 5 1 1 2 2 9 11 14 14 13 9 7 9 6 6 8 10 9 8 7 2 3
13 12 12 16 16 15 14 11 16 12 14 5 3 4 4 3 6 5 3 4 1 2 3 2 3 2 3 3 1 0 2 5 2 1 2 2 6 9 10 10 11 15 14 10 3 7 4 2 6 9 8 2 3 7
13 13 12 12 12 12 13 15 16 16 4 3 3 2 4 2 3 4 4 3 4 3 3 2 2 2 1 2 1 1 4 2 3 2 2 3 6 9 10 9 6 9 7 7 5 12 10 11 9 9 6 4 7 8
15 12 11 10 12 14 15 18 18 10 2 2 4 3 4 4 2 3 3 1 3 3 1 2 2 2 2 2 1 2 5 3 2 3 3 4 6 7 8 9 7 6 6 5 3 6 6 8 9 8 7 8 9 8
15 12 10 11 15 15 19 20 15 4 2 3 1 0 3 2 3 1 3 3 3 1 1 2 1 3 3 3 1 4 2 1 3 3 3 4 7 9 8 9 9 8 7 7 4 5 5 7 10 9 11 10 9 9
15 6 14 14 16 21 23 7 4 3 3 1 3 2 2 1 4 4 4 3 5 3 1 2 1 7 0 2 3 2 2 3 3 4 2 1 3 7 9 11 13 13 11 11 10 11 11 13 13 13 10 8 9 9
9 14 19 20 24 20 4 2 3 3 3 5 3 3 3 3 3 3 3 4 3 3 3 4 2 1 3 3 3 1 3 3 3 4 3 3 4 7 8 11 13 13 12 13 12 11 10 11 10 7 7 6 6 7
18 17 23 25 24 7 4 2 2 2 4 2 3 3 3 3 8 14 7 12 13 6 3 2 3 3 3 4 4 3 3 2 3 4 4 6 4 5 6 8 9 11 11 10 11 9 8 7 6 5 5 5 4 6
18 19 23 23 17 4 3 1 3 2 2 3 2 2 3 3 2 3 3 3 3 3 4 4 5 4 4 4 4 4 3 3 1 3 4 3 3 5 4 6 6 6 7 7 8 7 5 5 5 5 6 6 6 7
21 20 18 14 3 2 4 3 2 3 3 3 2 2 3 2 2 2 3 4 2 3 3 5 5 6 13 16 17 14 12 8 4 4 3 2 3 7 5 3 4 5 5 5 4 5 5 4 5 5 6 6 7 6
12 17 8 5 2 2 1 7 3 2 3 3 2 3 2 2 3 3 1 2 3 4 4 4 6 6 4 5 15 20 21 16 13 9 7 6 2 2 2 2 4 3 3 2 2 3 4 3 4 4 4 4 5 4
18 10 4 3 2 5 4 5 3 2 3 3 1 1 3 2 3 1 2 3 4 6 12 11 13 17 15 18 13 10 11 12 10 9 8 7 6 4 4 4 4 3 2 0 2 3 3 4 4 4 3 4 5 5
13 5 4 5 4 4 1 3 1 2 2 0 2 3 3 3 1 1 3 3 4 4 3 7 7 2 1 2 4 11 13 12 9 8 8 6 4 5 3 3 3 3 2 2 3 3 2 2 3 3 3 3 4 4
6 4 4 3 1 3 3 2 3 3 3 4 3 3 3 1 1 3 3 3 2 2 2 3 5 4 3 2 4 10 8 11 11 7 7 8 7 2 2 2 1 1 1 2 1 2 1 1 1 2 2 3 3 3
4 7 10 8 3 5 6 4 5 5 3 2 4 2 1 1 1 5 3 2 2 2 2 3 4 2 2 6 3 4 8 8 8 6 6 5 5 3 3 2 1 3 2 1 2 2 2 2 1 1 1 2 3 3
5 6 3 4 2 3 2 2 2 2 4 5 3 2 2 2 5 4 3 3 3 3 2 2 5 7 5 6 7 5 6 7 5 4 4 5 4 4 5 5 6 5 4 4 3 4 4 3 3 3 3 2 2 3
4 5 7 6 3 3 4 2 5 6 4 3 3 4 5 6 4 3 4 3 4 2 2 1 1 3 3 5 8 9 7 6 6 4 4 5 6 8 8 8 7 5 6 6 6 5 5 5 5 6 6 6 4 3
3 3 4 4 3 4 5 6 5 4 4 4 5 4 4 4 3 4 4 5 5 6 6 6 6 5 5 6 7 9 7 10 8 4 3 2 2 5 8 8 7 7 6 5 5 5 5 5 6 6 7 7 6 7
4 4 3 5 6 7 5 6 4 3 4 4 2 1 2 3 6 8 9 9 10 13 14 12 10 11 12 12 11 11 11 12 12 10 4 4 6 6 6 8 8 8 7 6 6 6 5 4 5 6 8 10 10 9
4 3 2 3 4 4 4 5 4 3 3 4 4 3 4 3 8 16 17 18 18 18 14 14 14 16 16 16 16 12 10 13 14 14 12 12 9 8 8 9 8 8 8 8 7 6 6 8 8 9 10 11 12 12
3 5 4 3 3 3 0 3 3 3 2 2 3 2 2 2 4 5 10 17 21 19 24 21 20 21 20 19 17 16 14 11 9 10 13 13 11 10 9 8 7 6 7 7 9 9 11 11 12 12 12 13 13 12
2 2 2 2 1 2 2 2 0 2 2 2 3 4 5 4 5 3 3 7 10 14 17 18 18 16 14 14 15 15 14 12 10 9 10 11 11 10 8 8 8 9 10 11 11 11 11 11 12 13 13 12 12 11
Wind_Direction
146 140 139 141 139 136 129 126 124 119 113 109 97 79 62 59 68 114 77 55 65 124 275 205 49 96 20 105 143 285 11 347 26 15 184 279 285 349 296 290 304 281 327 294 279 242 264 303 293 338 264 295 287 346
138 139 133 129 132 129 125 124 121 117 115 108 99 88 79 73 78 109 96 53 30 140 240 295 288 277 250 244 161 215 195 192 207 76 275 268 306 298 266 273 302 282 209 294 194 257 296 314 285 280 266 258 248 214
139 141 137 137 132 127 125 126 122 118 115 109 101 90 76 63 65 87 94 49 46 48 317 20 315 348 324 258 279 156 278 216 213 190 192 226 238 143 237 248 251 289 283 258 318 256 274 297 294 288 289 245 233 222
142 143 138 136 135 132 131 127 123 121 118 109 100 87 72 60 50 54 90 63 93 91 92 281 294 299 307 303 297 250 240 245 223 106 183 198 208 187 216 247 229 228 318 265 272 279 284 281 278 290 291 218 160 157
141 139 139 137 137 135 134 130 126 120 111 108 102 86 70 58 40 61 86 80 95 109 205 269 300 316 339 310 292 250 213 163 138 121 170 234 236 139 234 262 259 220 248 230 256 256 246 265 289 308 334 287 227 168
142 143 142 139 142 137 137 134 127 124 117 109 98 75 43 33 37 154 48 71 79 40 91 326 309 303 323 336 301 258 256 195 148 172 221 240 238 167 242 247 255 238 241 239 253 272 273 278 280 265 248 255 278 38
146 147 145 142 143 141 138 138 133 129 118 106 85 32 9 355 7 50 157 63 305 325 76 328 320 291 312 329 323 295 264 205 151 223 240 224 195 203 236 262 269 255 254 268 252 272 279 263 247 249 213 217 288 334
149 149 149 149 148 148 150 146 145 140 128 101 23 353 347 19 80 73 72 68 41 80 48 331 278 337 1 312 315 269 296 24 296 220 293 223 291 203 250 255 287 277 266 260 258 254 245 261 241 202 182 215 276 313
157 157 158 160 159 162 163 164 160 162 159 36 1 356 84 65 67 86 322 298 326 72 144 346 244 266 352 285 258 320 76 348 260 236 242 129 231 230 253 288 288 283 251 248 260 265 252 247 247 259 192 222 262 281
166 170 172 175 170 172 181 176 177 176 192 17 29 86 26 63 348 318 163 44 25 1 63 236 118 281 91 3 291 1 15 257 274 242 227 202 254 296 286 294 297 289 288 230 237 271 235 224 196 220 221 230 236 260
181 181 182 182 181 178 177 190 191 190 186 157 98 129 101 341 84 30 26 75 327 339 302 240 201 242 248 215 242 184 263 287 356 272 331 319 296 305 298 308 310 312 275 222 227 247 233 215 188 211 222 233 231 190
200 199 193 190 188 185 183 179 178 179 165 135 128 104 81 47 51 76 282 331 85 240 264 220 247 209 279 122 86 305 222 26 252 293 304 289 264 301 317 313 316 327 326 261 247 227 234 225 207 191 190 210 216 98
175 178 187 191 194 192 196 196 182 177 138 128 61 46 53 324 41 117 242 304 304 223 258 269 308 227 330 44 340 36 306 240 323 77 231 247 302 311 308 314 320 329 341 347 84 66 57 164 181 172 163 178 112 110
161 164 174 182 190 192 196 179 171 156 118 87 108 307 137 319 236 187 185 199 232 203 253 209 259 212 279 356 186 158 249 343 264 319 349 282 292 307 314 314 322 324 328 326 189 131 113 93 88 105 121 131 120 107
164 160 166 182 187 174 173 167 158 150 131 124 104 221 212 220 222 226 207 344 253 236 177 355 345 76 312 2 185 327 335 265 40 278 253 282 304 313 319 327 320 332 343 356 77 119 125 123 116 101 95 101 109 105
161 156 169 159 156 153 144 141 141 146 55 91 80 36 226 53 294 278 213 242 242 185 66 58 117 23 280 174 50 228 239 287 260 247 277 317 345 324 328 329 335 5 19 35 56 119 132 126 111 101 94 93 88 79
159 159 170 162 154 151 154 119 152 73 151 121 260 213 217 304 232 231 194 229 184 100 188 124 68 230 197 275 264 188 263 266 269 295 294 230 318 310 323 345 358 21 32 50 75 90 94 104 105 96 81 72 74 70
165 150 160 156 146 137 104 98 99 100 231 228 249 232 194 207 221 248 229 203 143 179 130 212 166 62 229 211 261 249 273 290 287 276 283 276 285 325 348 352 15 26 39 56 70 79 87 88 85 79 80 67 60 56
162 152 158 160 156 128 131 140 167 213 230 227 242 232 223 239 230 241 238 232 218 194 140 198 221 218 221 228 241 262 258 233 269 292 282 299 304 351 8 23 17 27 37 43 54 59 67 70 66 58 49 39 29 22
154 154 157 167 168 128 72 72 165 247 244 237 257 244 218 219 227 223 229 192 153 158 202 214 214 213 212 235 201 221 229 238 222 308 302 308 350 346 358 13 12 12 26 38 49 47 47 50 46 38 28 25 19 13
154 158 154 158 147 106 124 151 192 223 252 256 255 203 247 268 250 233 246 173 135 205 231 219 221 232 235 245 253 255 253 231 222 205 244 309 322 326 317 339 14 33 39 21 22 19 34 19 1 349 359 13 17 14
143 151 132 172 96 147 202 192 175 179 192 248 301 217 255 259 261 237 185 145 221 218 206 212 234 237 232 235 249 248 248 251 245 234 254 264 285 334 355 343 331 343 350 343 346 346 342 340 341 338 346 9 14 19
142 141 107 118 127 194 256 166 202 213 219 254 331 301 273 253 234 127 255 224 244 230 223 227 243 246 234 253 249 235 238 221 219 235 253 258 260 264 269 284 289 287 315 59 32 348 334 330 331 348 357 4 27 40
124 121 152 186 148 211 25 197 233 239 237 126 184 265 258 226 296 255 245 247 240 251 214 229 214 189 195 193 204 219 218 210 224 242 245 245 259 272 281 264 256 260 288 326 320 301 302 332 341 1 23 22 29 35
94 194 158 226 211 108 166 241 226 187 236 216 208 269 266 124 220 257 246 273 289 274 264 203 179 199 202 230 245 234 224 218 211 222 244 242 238 250 285 288 244 230 316 315 338 315 304 301 331 10 33 47 40 36
179 211 182 186 207 182 195 190 200 209 179 203 234 255 77 100 322 252 252 252 257 269 254 202 185 183 240 224 230 222 213 207 207 217 245 226 214 235 242 227 244 258 269 304 286 279 286 280 277 291 6 43 32 5
186 200 199 214 174 165 198 223 178 142 188 209 229 162 91 193 244 250 261 234 230 261 289 264 211 204 221 219 214 202 181 184 197 215 188 184 203 226 239 235 231 257 232 242 276 279 269 262 269 277 277 291 330 349
194 169 173 176 199 200 173 179 182 200 218 202 120 185 195 203 233 229 215 236 242 233 227 202 202 226 229 210 189 180 173 174 175 188 217 239 242 242 245 249 254 247 237 251 259 261 260 260 260 270 277 281 284 301
198 171 114 162 160 188 211 198 211 214 191 163 182 212 228 221 234 226 226 226 226 229 230 228 222 213 198 185 186 195 201 192 175 176 211 240 289 242 229 231 227 219 223 226 231 252 262 265 272 270 273 271 281 293
196 158 135 165 168 210 222 192 217 212 187 194 195 291 269 265 260 256 244 238 221 231 244 244 237 216 216 212 218 222 219 218 220 219 202 230 246 265 244 222 213 217 234 239 237 240 243 239 253 270 270 270 272 276
139 148 117 160 215 231 220 222 232 215 175 188 191 211 258 269 272 270 261 256 252 247 240 234 232 228 225 222 222 225 239 232 237 242 247 255 261 247 234 234 240 242 238 237 229 232 248 256 256 261 266 271 276 277
141 177 163 179 261 277 339 190 205 202 216 164 257 185 254 239 260 264 246 240 236 230 234 236 233 235 234 237 238 238 244 246 243 246 237 239 241 239 240 236 227 228 241 241 239 251 258 260 261 267 270 272 272 275
109 114 111 145 304 301 263 112 59 298 311 252 244 210 209 195 235 258 259 242 246 252 251 250 247 244 238 235 236 234 230 234 243 239 232 236 237 233 225 231 238 242 251 253 259 262 261 261 263 267 267 268 274 278